Weather History for Pittsburgh, PA

Change the Weather History Date:

Thursday, November 8, 2012

  Actual Average Record
Temperature  
Mean Temperature 35 °F 46 °F  
Max Temperature 46 °F 55 °F 76 °F (1881)
Min Temperature 24 °F 37 °F 15 °F (1976)
Degree Days  
Heating Degree Days 30 19  
Month to date heating degree days 218 145  
Since 1 July heating degree days 711 646  
Cooling Degree Days 0 0  
Month to date cooling degree days 0 0  
Year to date cooling degree days 1025 736  
Moisture  
Dew Point 25 °F    
Average Humidity 65    
Maximum Humidity 81    
Minimum Humidity 49    
Precipitation  
Precipitation 0.00 in 0.10 in 1.01 in (1996)
Month to date precipitation 0.13 0.82  
Year to date precipitation 35.96 32.93  
Snow  
Snow 0.00 in 0.00 in 2.50 in (1914)
Month to date snowfall T 0.3  
Since 1 July snowfall T 0.7  
Snow Depth 0.00 in    
Sea Level Pressure  
Sea Level Pressure 30.16 in    
Wind  
Wind Speed 6 mph (NW)    
Max Wind Speed 16 mph    
Max Gust Speed 22 mph    
Visibility 10 miles    
Events      
T = Trace of Precipitation, MM = Missing Value Source: NWS Daily Summary

Daily Weather History Graph

Daily Weather History Graph

Search for Another Location

Airport:

Trip Planner

Search our weather history database for the weather conditions in past years. The results will help you decide how hot, cold, wet, or windy it might be!

Date:

Astronomy

Nov. 08, 2012 Rise Set
Actual Time 6:59 AM EST 5:09 PM EST
Civil Twilight 6:30 AM EST 5:38 PM EST
Nautical Twilight 5:58 AM EST 6:10 PM EST
Astronomical Twilight 5:26 AM EST 6:42 PM EST
Moon 12:51 AM EST (11/8) 1:50 PM EST (11/8)
Length of Visible Light 11h 07m
Length of Day
10h 09m
Waning Crescent, 33% of the Moon is Illuminated
Nov 8
Waning Crescent
Nov 13
New
Nov 20
First Quarter
Nov 28
Full
Dec 6
Last Quarter

Hourly Weather History & Observations

Time (EST) Temp. Windchill Dew Point Humidity Pressure Visibility Wind Dir Wind Speed Gust Speed Precip Events Conditions
12:51 AM 28.0 °F 24.2 °F 19.0 °F 69% 30.09 in 10.0 mi NW 3.5 mph - N/A   Mostly Cloudy
1:51 AM 28.0 °F 20.8 °F 19.0 °F 69% 30.09 in 10.0 mi NNW 6.9 mph - N/A   Mostly Cloudy
2:51 AM 27.0 °F 20.5 °F 19.0 °F 72% 30.10 in 10.0 mi NNW 5.8 mph - N/A   Mostly Cloudy
3:51 AM 26.1 °F 21.9 °F 19.0 °F 75% 30.11 in 10.0 mi NW 3.5 mph - N/A   Mostly Cloudy
4:51 AM 26.1 °F - 19.0 °F 75% 30.12 in 10.0 mi Calm Calm - N/A   Scattered Clouds
5:51 AM 25.0 °F 17.1 °F 19.0 °F 78% 30.14 in 10.0 mi NW 6.9 mph - N/A   Partly Cloudy
6:51 AM 24.1 °F 18.2 °F 19.0 °F 81% 30.16 in 10.0 mi WNW 4.6 mph - N/A   Partly Cloudy
7:51 AM 27.0 °F 20.5 °F 21.0 °F 78% 30.19 in 10.0 mi WNW 5.8 mph - N/A   Scattered Clouds
8:40 AM 30.2 °F 24.3 °F 24.8 °F 80% 30.14 in 10.0 mi WNW 5.8 mph - N/A   Mostly Cloudy
8:51 AM 32.0 °F 25.6 °F 24.1 °F 73% 30.21 in 10.0 mi WNW 6.9 mph - N/A   Overcast
9:51 AM 34.0 °F 28.8 °F 25.0 °F 70% 30.22 in 10.0 mi WNW 5.8 mph - N/A   Mostly Cloudy
10:51 AM 37.0 °F 32.4 °F 27.0 °F 67% 30.22 in 10.0 mi NNW 5.8 mph - N/A   Mostly Cloudy
11:41 AM 39.2 °F 33.6 °F 28.4 °F 65% 30.14 in 10.0 mi North 8.1 mph - N/A   Scattered Clouds
11:51 AM 39.9 °F 32.5 °F 28.0 °F 63% 30.19 in 10.0 mi NW 12.7 mph 17.3 mph N/A   Scattered Clouds
12:51 PM 42.1 °F 36.6 °F 28.0 °F 58% 30.17 in 10.0 mi West 9.2 mph - N/A   Partly Cloudy
1:51 PM 45.0 °F 39.7 °F 28.0 °F 52% 30.16 in 10.0 mi West 10.4 mph - N/A   Partly Cloudy
2:51 PM 45.0 °F 40.1 °F 27.0 °F 49% 30.15 in 10.0 mi WNW 9.2 mph 18.4 mph N/A   Clear
3:51 PM 45.0 °F 39.7 °F 28.0 °F 52% 30.15 in 10.0 mi WNW 10.4 mph - N/A   Clear
4:51 PM 44.1 °F 38.6 °F 28.0 °F 53% 30.16 in 10.0 mi WNW 10.4 mph - N/A   Clear
5:51 PM 39.9 °F 35.1 °F 28.0 °F 63% 30.18 in 10.0 mi West 6.9 mph - N/A   Partly Cloudy
6:51 PM 37.9 °F 33.5 °F 28.0 °F 68% 30.19 in 10.0 mi West 5.8 mph - N/A   Clear
7:51 PM 37.9 °F 31.5 °F 28.0 °F 68% 30.20 in 10.0 mi NW 9.2 mph - N/A   Clear
8:51 PM 36.0 °F 30.3 °F 28.0 °F 73% 30.21 in 10.0 mi NW 6.9 mph - N/A   Clear
9:51 PM 35.1 °F 32.2 °F 28.0 °F 76% 30.21 in 10.0 mi NW 3.5 mph - N/A   Clear
10:51 PM 32.0 °F - 26.6 °F 80% 30.15 in 10.0 mi Calm Calm - N/A   Clear
11:51 PM 30.9 °F - 26.1 °F 82% 30.20 in 9.0 mi Calm Calm - N/A   Clear